Location: Holbach
(51.5399°N, 10.6036°E)
Time: 10:19:02
(UTC+00:00)

ATLAS CENTAUR R/B - Pass Details

Date: 25 January 2021
Orbit: 471 x 674 km, 64.6° (Epoch: 24 February)

Event Time Altitude Azimuth Distance (km) Brightness Sun altitude
Exits shadow 04:25:33 14° 165° (SSE) 1,385 3.5 -24.6°
Maximum altitude 04:27:43 24° 119° (ESE) 1,023 3.3 -24.3°
Drops below altitude 10° 04:30:40 10° 64° (ENE) 1,643 4.6 -23.8°
Sets 04:33:05 0° 51° (NE) 2,535 5.5 -23.5°
